Location: Ciochowice
(50.4289°N, 18.5217°E)
Time: 19:16:13
(UTC+01:00)

ISS - Visible Passes

Search period start: 22 February 2018 00:00
Search period end: 04 March 2018 00:00
Orbit: 402 x 407 km, 51.6° (Epoch: 23 February)

Date Brightness Start Highest point End Pass type
(mag) Time Alt. Az. Time Alt. Az. Time Alt. Az.
27 Feb -0.9 05:34:17 10° S 05:36:12 15° SE 05:38:07 10° ESE visible
01 Mar -1.9 05:24:58 10° SSW 05:27:47 26° SSE 05:30:36 10° E visible
02 Mar -1.4 04:34:05 13° S 04:35:40 17° SE 04:37:54 10° E visible
03 Mar -0.7 03:44:04 10° SE 03:44:04 10° SE 03:44:22 10° ESE visible
03 Mar -3.0 05:16:44 13° SW 05:19:26 46° SSE 05:22:36 10° E visible
